Location: Pilipovskiye Korichintsy
(49.1833°N, 27.4667°E)
Time: 12:43:39
(UTC+00:00)

Cosmos 1864 Rocket - Pass Details

Date: 14 July 2020
Orbit: 952 x 997 km, 82.9° (Epoch: 08 August)

Event Time Altitude Azimuth Distance (km) Brightness Sun altitude
Exits shadow 00:17:41 18° 190° (S) 2,146 5.7 -14.2°
Maximum altitude 00:22:23 86° 278° (W) 962 4.4 -13.8°
Drops below altitude 10° 00:28:34 10° 9° (N) 2,692 8.0 -13.3°
Sets 00:31:04 0° 10° (N) 3,644 8.9 -13.1°
